LARES

Last updated on Sun Oct 06 2024 00:03:25 GMT+0000 (Coordinated Universal Time)

1 38077U 12006A 24279.36737854 -.00000052 00000+0 -81794-4 0 9992 2 38077 69.4883 270.9554 0011493 267.6687 92.3024 12.54931856579305
UTC large
Height (km)
Speed (km/s)
/
Latitude / Longitude
Inclination (degrees)
Orbital Period (minutes)
Azimuth
Elevation
Range (km)
Doppler Factor

Next 0 passes for location: London (51.5072 / 0.1276)

Sorry there are no passes over London.